Location: Cork
(51.8990°N, 8.4960°W)
Time: 13:13:43
(UTC+01:00)

Iridium 66 - Visible Passes

Search period start: 01 October 2014 00:00
Search period end: 11 October 2014 00:00
Orbit: 776 x 779 km, 86.4° (Epoch: 30 September)

Date Brightness Start Highest point End Pass type
(mag) Time Alt. Az. Time Alt. Az. Time Alt. Az.
01 Oct 9.3 05:13:34 10° NNE 05:16:15 14° ENE 05:18:57 10° E visible
01 Oct 6.3 06:52:41 10° N 06:57:56 78° E 07:03:08 10° S visible
01 Oct 6.6 19:55:23 10° SSW 20:00:33 63° W 20:05:45 10° N visible
01 Oct 9.5 21:40:51 10° W 21:42:26 11° WNW 21:44:01 10° NW visible
02 Oct 7.2 06:19:15 10° N 06:24:18 47° E 06:29:19 10° SSE visible
02 Oct 9.0 21:04:50 10° WSW 21:08:23 18° WNW 21:11:57 10° NNW visible
03 Oct 8.1 05:45:59 10° NNE 05:50:32 29° ENE 05:55:03 10° SE visible
03 Oct 8.2 20:30:00 10° SW 20:34:30 29° WNW 20:39:01 10° NNW visible
04 Oct 8.8 05:13:01 10° NNE 05:16:39 19° ENE 05:20:15 10° ESE visible
04 Oct 6.0 06:52:48 10° N 06:58:02 78° W 07:03:14 10° S visible
04 Oct 7.3 19:55:44 10° SSW 20:00:44 46° W 20:05:46 10° N visible
05 Oct 9.4 04:40:53 10° NE 04:42:37 12° ENE 04:44:20 10° E visible
05 Oct 6.5 06:19:16 10° N 06:24:28 64° E 06:29:38 10° SSE visible
05 Oct 9.2 21:06:10 10° W 21:08:47 14° WNW 21:11:23 10° NNW visible
06 Oct 7.5 05:45:54 10° N 05:50:47 39° ENE 05:55:39 10° SE visible
06 Oct 8.7 20:30:49 10° WSW 20:34:48 22° WNW 20:38:48 10° NNW visible
07 Oct 8.3 05:12:44 10° NNE 05:16:58 24° ENE 05:21:11 10° SE visible
07 Oct 6.1 06:52:59 10° N 06:58:06 57° W 07:03:11 10° SSW visible
07 Oct 7.9 19:56:13 10° SW 20:00:57 35° WNW 20:05:43 10° N visible
08 Oct 9.0 04:39:58 10° NNE 04:43:02 16° ENE 04:46:05 10° E visible
08 Oct 6.1 06:19:21 10° N 06:24:36 87° E 06:29:49 10° S visible
08 Oct 6.9 19:22:07 10° SSW 19:27:14 57° W 19:32:23 10° N visible
08 Oct 9.6 21:08:56 10° WNW 21:09:13 10° WNW 21:09:30 10° WNW visible
09 Oct 6.9 05:45:52 10° N 05:50:59 53° E 05:56:04 10° SSE visible
09 Oct 9.0 20:31:53 10° WSW 20:35:09 17° WNW 20:38:26 10° NNW visible
10 Oct 7.8 05:12:34 10° NNE 05:17:15 32° ENE 05:21:54 10° SE visible
10 Oct 6.4 06:53:12 10° NNW 06:58:06 42° W 07:02:59 10° SSW visible
10 Oct 8.4 19:56:53 10° SW 20:01:13 26° WNW 20:05:35 10° NNW visible
